| time (UTC) | temp C | wind direction | speed KPH | gust KPH | rain 1hr cm | rain 24hr cm | rain mn cm | humidity % | barometer mb |
| 20260906030108 | 27 | 116 | 0.0 | 0.0 | 0.00 | 0.00 | 0.00 | 82 | 1016.7 |
| 20260906025607 | 27 | 117 | 0.0 | 0.0 | 0.00 | 0.00 | 0.00 | 82 | 1016.9 |
| 20260906025106 | 27 | 102 | 0.0 | 0.0 | 0.00 | 0.00 | 0.00 | 85 | 1016.7 |
| 20260906024601 | 27 | 102 | 0.0 | 0.0 | 0.00 | 0.00 | 0.00 | 82 | 1016.6 |
| 20260906024055 | 27 | 102 | 0.0 | 0.0 | 0.00 | 0.00 | 0.00 | 81 | 1016.5 |
| 20260906023552 | 27 | 102 | 0.0 | 0.0 | 0.00 | 0.00 | 0.00 | 80 | 1016.6 |
| 20260906023052 | 27 | 102 | 0.0 | 0.0 | 0.00 | 0.00 | 0.00 | 80 | 1016.5 |
| 20260906022547 | 27 | 102 | 0.0 | 0.0 | 0.00 | 0.00 | 0.00 | 80 | 1016.5 |
| 20260906022042 | 27 | 102 | 0.0 | 0.0 | 0.00 | 0.00 | 0.00 | 80 | 1016.6 |
| 20260906021538 | 27 | 102 | 0.0 | 0.0 | 0.00 | 0.00 | 0.00 | 80 | 1016.3 |
| 20260906021036 | 27 | 102 | 0.0 | 0.0 | 0.00 | 0.00 | 0.00 | 81 | 1016.1 |
| 20260906020531 | 27 | 102 | 0.0 | 0.0 | 0.00 | 0.00 | 0.00 | 81 | 1016.1 |
| 20260906020031 | 27 | 102 | 0.0 | 0.0 | 0.00 | 0.00 | 0.00 | 81 | 1016.2 |
| 20260906015529 | 27 | 102 | 0.0 | 0.0 | 0.00 | 0.00 | 0.00 | 81 | 1016.2 |
| 20260906015024 | 27 | 102 | 0.0 | 0.0 | 0.00 | 0.00 | 0.00 | 81 | 1015.9 |
| 20260906014519 | 28 | 102 | 0.0 | 0.0 | 0.00 | 0.00 | 0.00 | 81 | 1015.8 |
| 20260906014015 | 28 | 102 | 0.0 | 0.0 | 0.00 | 0.00 | 0.00 | 80 | 1015.7 |
| 20260906013509 | 28 | 102 | 0.0 | 0.0 | 0.00 | 0.00 | 0.00 | 80 | 1015.7 |
| 20260906013000 | 28 | 102 | 0.0 | 0.0 | 0.00 | 0.00 | 0.00 | 80 | 1015.7 |
| 20260906012455 | 28 | 102 | 0.0 | 0.0 | 0.00 | 0.00 | 0.00 | 80 | 1015.6 |
| 20260906011954 | 28 | 100 | 0.0 | 0.0 | 0.00 | 0.00 | 0.00 | 79 | 1015.7 |
| 20260906011450 | 28 | 108 | 0.0 | 0.0 | 0.00 | 0.00 | 0.00 | 79 | 1015.5 |
| 20260906010944 | 28 | 108 | 0.0 | 0.0 | 0.00 | 0.00 | 0.00 | 78 | 1015.6 |
| 20260906010440 | 29 | 108 | 0.0 | 0.0 | 0.00 | 0.00 | 0.00 | 78 | 1015.5 |
| 20260906005937 | 30 | 98 | 0.0 | 0.0 | 0.00 | 0.00 | 0.00 | 76 | 1015.5 |
| 20260906005435 | 30 | 97 | 0.0 | 0.0 | 0.00 | 0.00 | 0.00 | 75 | 1015.5 |
| 20260906004928 | 30 | 138 | 0.0 | 0.0 | 0.00 | 0.00 | 0.00 | 75 | 1015.4 |
| 20260906004423 | 30 | 128 | 0.0 | 0.0 | 0.00 | 0.00 | 0.00 | 74 | 1015.2 |
| 20260906003919 | 30 | 134 | 0.0 | 0.0 | 0.00 | 0.00 | 0.00 | 75 | 1015.2 |
| 20260906003414 | 30 | 154 | 0.0 | 0.0 | 0.00 | 0.00 | 0.00 | 73 | 1015.3 |
| 20260906002909 | 30 | 134 | 0.0 | 0.0 | 0.00 | 0.00 | 0.00 | 74 | 1015.0 |
| 20260906002409 | 30 | 99 | 0.0 | 0.0 | 0.00 | 0.00 | 0.00 | 72 | 1015.1 |
| 20260906001904 | 31 | 96 | 0.0 | 0.0 | 0.00 | 0.00 | 0.00 | 70 | 1015.2 |
| 20260906001400 | 31 | 92 | 0.0 | 0.0 | 0.00 | 0.00 | 0.00 | 70 | 1015.2 |
| 20260906000859 | 31 | 91 | 0.0 | 0.0 | 0.00 | 0.00 | 0.00 | 70 | 1015.4 |
| 20260906000356 | 31 | 91 | 0.0 | 0.0 | 0.00 | 0.00 | 0.00 | 70 | 1015.4 |
| 20260905235849 | 32 | 91 | 0.0 | 0.0 | 0.00 | 0.00 | 0.00 | 68 | 1015.3 |
| 20260905235343 | 32 | 92 | 0.0 | 0.0 | 0.00 | 0.00 | 0.00 | 67 | 1015.3 |
| 20260905234839 | 32 | 91 | 0.0 | 0.0 | 0.00 | 0.00 | 0.00 | 65 | 1015.3 |
| 20260905234334 | 32 | 91 | 0.0 | 0.0 | 0.00 | 0.00 | 0.00 | 64 | 1015.5 |
| 20260905233829 | 33 | 91 | 0.0 | 0.0 | 0.00 | 0.00 | 0.00 | 63 | 1015.3 |
| 20260905233324 | 33 | 91 | 0.0 | 0.0 | 0.00 | 0.00 | 0.00 | 61 | 1015.4 |
| 20260905232823 | 33 | 91 | 0.0 | 0.0 | 0.00 | 0.00 | 0.00 | 59 | 1015.4 |
| 20260905232320 | 33 | 91 | 0.0 | 0.0 | 0.00 | 0.00 | 0.00 | 60 | 1015.3 |
| 20260905231815 | 33 | 91 | 0.0 | 0.0 | 0.00 | 0.00 | 0.00 | 58 | 1015.5 |
| 20260905231310 | 34 | 79 | 0.0 | 0.0 | 0.00 | 0.00 | 0.00 | 56 | 1015.4 |
| 20260905230806 | 34 | 83 | 0.0 | 0.0 | 0.00 | 0.00 | 0.00 | 56 | 1015.3 |
| 20260905230304 | 34 | 81 | 0.0 | 0.0 | 0.00 | 0.00 | 0.00 | 56 | 1015.5 |
| 20260905225804 | 35 | 104 | 0.0 | 0.0 | 0.00 | 0.00 | 0.00 | 55 | 1015.4 |
| 20260905225259 | 35 | 102 | 0.0 | 0.0 | 0.00 | 0.00 | 0.00 | 55 | 1015.4 |
| 20260905224758 | 35 | 66 | 0.0 | 1.6 | 0.00 | 0.00 | 0.00 | 54 | 1015.3 |
| 20260905224254 | 35 | 103 | 1.6 | 1.6 | 0.00 | 0.00 | 0.00 | 54 | 1015.1 |
| 20260905223749 | 35 | 239 | 1.6 | 3.2 | 0.00 | 0.00 | 0.00 | 53 | 1015.3 |
| 20260905223246 | 35 | 169 | 3.2 | 4.8 | 0.00 | 0.00 | 0.00 | 54 | 1015.3 |
| 20260905222741 | 36 | 74 | 0.0 | 0.0 | 0.00 | 0.00 | 0.00 | 48 | 1015.2 |
| 20260905222240 | 36 | 97 | 0.0 | 0.0 | 0.00 | 0.00 | 0.00 | 48 | 1015.1 |
| 20260905221736 | 37 | 87 | 0.0 | 1.6 | 0.00 | 0.00 | 0.00 | 47 | 1015.2 |
| 20260905221233 | 37 | 133 | 0.0 | 0.0 | 0.00 | 0.00 | 0.00 | 45 | 1015.0 |
| 20260905220729 | 37 | 230 | 0.0 | 1.6 | 0.00 | 0.00 | 0.00 | 45 | 1015.2 |
| 20260905220225 | 37 | 73 | 0.0 | 1.6 | 0.00 | 0.00 | 0.00 | 45 | 1015.1 |
| 20260905215724 | 37 | 129 | 0.0 | 0.0 | 0.00 | 0.00 | 0.00 | 44 | 1015.0 |
| 20260905215220 | 37 | 86 | 0.0 | 1.6 | 0.00 | 0.00 | 0.00 | 45 | 1015.1 |
| 20260905214716 | 38 | 75 | 0.0 | 3.2 | 0.00 | 0.00 | 0.00 | 43 | 1015.1 |
| 20260905214211 | 38 | 266 | 0.0 | 3.2 | 0.00 | 0.00 | 0.00 | 43 | 1015.3 |
| 20260905213706 | 38 | 127 | 0.0 | 3.2 | 0.00 | 0.00 | 0.00 | 43 | 1015.2 |
| 20260905213202 | 38 | 129 | 1.6 | 3.2 | 0.00 | 0.00 | 0.00 | 42 | 1015.1 |
| 20260905212657 | 39 | 158 | 0.0 | 0.0 | 0.00 | 0.00 | 0.00 | 41 | 1015.3 |
| 20260905212156 | 39 | 344 | 1.6 | 3.2 | 0.00 | 0.00 | 0.00 | 39 | 1015.3 |
| 20260905211650 | 40 | 319 | 0.0 | 0.0 | 0.00 | 0.00 | 0.00 | 42 | 1015.4 |
| 20260905211146 | 39 | 148 | 1.6 | 1.6 | 0.00 | 0.00 | 0.00 | 41 | 1015.3 |
| 20260905210643 | 39 | 255 | 0.0 | 1.6 | 0.00 | 0.00 | 0.00 | 41 | 1015.4 |
| 20260905210142 | 40 | 273 | 3.2 | 3.2 | 0.00 | 0.00 | 0.00 | 41 | 1015.5 |
| 20260905205641 | 39 | 281 | 0.0 | 4.8 | 0.00 | 0.00 | 0.00 | 40 | 1015.4 |
| 20260905205136 | 40 | 187 | 1.6 | 1.6 | 0.00 | 0.00 | 0.00 | 39 | 1015.6 |
| 20260905204630 | 40 | 223 | 0.0 | 3.2 | 0.00 | 0.00 | 0.00 | 41 | 1015.7 |
| 20260905204125 | 38 | 265 | 3.2 | 4.8 | 0.00 | 0.00 | 0.00 | 41 | 1015.5 |
| 20260905203620 | 39 | 129 | 0.0 | 4.8 | 0.00 | 0.00 | 0.00 | 43 | 1015.6 |
| 20260905203115 | 40 | 108 | 4.8 | 4.8 | 0.00 | 0.00 | 0.00 | 41 | 1015.7 |
| 20260905202610 | 40 | 288 | 1.6 | 3.2 | 0.00 | 0.00 | 0.00 | 41 | 1015.6 |
| 20260905202105 | 39 | 145 | 1.6 | 3.2 | 0.00 | 0.00 | 0.00 | 42 | 1015.7 |
| 20260905201601 | 38 | 96 | 0.0 | 3.2 | 0.00 | 0.00 | 0.00 | 45 | 1015.6 |
| 20260905201100 | 38 | 112 | 1.6 | 3.2 | 0.00 | 0.00 | 0.00 | 43 | 1015.8 |
| 20260905200556 | 39 | 164 | 0.0 | 1.6 | 0.00 | 0.00 | 0.00 | 45 | 1015.8 |
| 20260905200055 | 39 | 18 | 0.0 | 3.2 | 0.00 | 0.00 | 0.00 | 43 | 1015.8 |
| 20260905195549 | 40 | 292 | 0.0 | 3.2 | 0.00 | 0.00 | 0.00 | 41 | 1015.8 |
| 20260905195040 | 39 | 205 | 0.0 | 3.2 | 0.00 | 0.00 | 0.00 | 42 | 1016.1 |
| 20260905194539 | 38 | 275 | 1.6 | 3.2 | 0.00 | 0.00 | 0.00 | 43 | 1016.1 |
| 20260905194039 | 38 | 109 | 0.0 | 1.6 | 0.00 | 0.00 | 0.00 | 45 | 1016.3 |
| 20260905193534 | 37 | 84 | 0.0 | 3.2 | 0.00 | 0.00 | 0.00 | 45 | 1016.3 |
| 20260905193029 | 37 | 65 | 0.0 | 0.0 | 0.00 | 0.00 | 0.00 | 47 | 1016.6 |
| 20260905192524 | 38 | 127 | 3.2 | 3.2 | 0.00 | 0.00 | 0.00 | 45 | 1016.6 |
| 20260905192020 | 39 | 111 | 1.6 | 3.2 | 0.00 | 0.00 | 0.00 | 46 | 1016.8 |
| 20260905191519 | 39 | 260 | 1.6 | 3.2 | 0.00 | 0.00 | 0.00 | 43 | 1016.5 |
| 20260905191018 | 39 | 235 | 0.0 | 3.2 | 0.00 | 0.00 | 0.00 | 44 | 1016.6 |
| 20260905190516 | 38 | 260 | 1.6 | 3.2 | 0.00 | 0.00 | 0.00 | 44 | 1016.6 |
| 20260905190015 | 39 | 266 | 1.6 | 3.2 | 0.00 | 0.00 | 0.00 | 44 | 1016.8 |
| 20260905185510 | 38 | 335 | 0.0 | 3.2 | 0.00 | 0.00 | 0.00 | 45 | 1016.9 |
| 20260905185009 | 38 | 356 | 1.6 | 3.2 | 0.00 | 0.00 | 0.00 | 46 | 1017.0 |
| 20260905184504 | 37 | 199 | 1.6 | 4.8 | 0.00 | 0.00 | 0.00 | 46 | 1017.0 |
| 20260905184003 | 37 | 136 | 1.6 | 3.2 | 0.00 | 0.00 | 0.00 | 48 | 1016.9 |
| 20260905183502 | 37 | 119 | 1.6 | 3.2 | 0.00 | 0.00 | 0.00 | 48 | 1017.2 |
| 20260905182957 | 37 | 114 | 3.2 | 3.2 | 0.00 | 0.00 | 0.00 | 51 | 1017.1 |
| 20260905182457 | 38 | 165 | 1.6 | 3.2 | 0.00 | 0.00 | 0.00 | 48 | 1017.1 |
| 20260905181952 | 38 | 166 | 0.0 | 3.2 | 0.00 | 0.00 | 0.00 | 49 | 1017.1 |
| 20260905181447 | 37 | 211 | 0.0 | 3.2 | 0.00 | 0.00 | 0.00 | 52 | 1017.1 |
| 20260905180946 | 37 | 96 | 0.0 | 1.6 | 0.00 | 0.00 | 0.00 | 52 | 1017.2 |
| 20260905180441 | 37 | 98 | 1.6 | 1.6 | 0.00 | 0.00 | 0.00 | 51 | 1017.3 |
| 20260905175936 | 37 | 3 | 0.0 | 3.2 | 0.00 | 0.00 | 0.00 | 51 | 1017.4 |
| 20260905175435 | 37 | 267 | 3.2 | 3.2 | 0.00 | 0.00 | 0.00 | 52 | 1017.5 |
| 20260905174931 | 37 | 57 | 1.6 | 3.2 | 0.00 | 0.00 | 0.00 | 51 | 1017.3 |
| 20260905174426 | 37 | 256 | 0.0 | 1.6 | 0.00 | 0.00 | 0.00 | 51 | 1017.5 |
| 20260905173922 | 37 | 26 | 1.6 | 1.6 | 0.00 | 0.00 | 0.00 | 51 | 1017.5 |
| 20260905173418 | 36 | 73 | 0.0 | 1.6 | 0.00 | 0.00 | 0.00 | 52 | 1017.7 |
| 20260905172913 | 36 | 219 | 1.6 | 1.6 | 0.00 | 0.00 | 0.00 | 52 | 1017.4 |
| 20260905172410 | 36 | 105 | 0.0 | 4.8 | 0.00 | 0.00 | 0.00 | 51 | 1017.7 |
| 20260905171906 | 36 | 57 | 0.0 | 3.2 | 0.00 | 0.00 | 0.00 | 51 | 1017.5 |
| 20260905171403 | 36 | 280 | 3.2 | 3.2 | 0.00 | 0.00 | 0.00 | 53 | 1017.7 |
| 20260905170859 | 36 | 251 | 1.6 | 3.2 | 0.00 | 0.00 | 0.00 | 52 | 1017.8 |
| 20260905170355 | 36 | 220 | 0.0 | 4.8 | 0.00 | 0.00 | 0.00 | 53 | 1017.9 |
| 20260905165854 | 35 | 257 | 3.2 | 6.4 | 0.00 | 0.00 | 0.00 | 54 | 1018.0 |
| 20260905165349 | 35 | 298 | 1.6 | 4.8 | 0.00 | 0.00 | 0.00 | 55 | 1017.9 |
| 20260905164844 | 35 | 266 | 1.6 | 3.2 | 0.00 | 0.00 | 0.00 | 56 | 1018.1 |
| 20260905164339 | 35 | 134 | 1.6 | 1.6 | 0.00 | 0.00 | 0.00 | 57 | 1018.0 |
| 20260905163834 | 35 | 208 | 3.2 | 6.4 | 0.00 | 0.00 | 0.00 | 57 | 1018.2 |
| 20260905163330 | 35 | 247 | 3.2 | 4.8 | 0.00 | 0.00 | 0.00 | 57 | 1018.3 |
| 20260905162826 | 35 | 189 | 1.6 | 3.2 | 0.00 | 0.00 | 0.00 | 55 | 1018.3 |
| 20260905162320 | 34 | 293 | 1.6 | 3.2 | 0.00 | 0.00 | 0.00 | 58 | 1018.4 |
| 20260905161814 | 34 | 340 | 1.6 | 3.2 | 0.00 | 0.00 | 0.00 | 59 | 1018.3 |
| 20260905161309 | 34 | 224 | 0.0 | 4.8 | 0.00 | 0.00 | 0.00 | 58 | 1018.4 |
| 20260905160807 | 34 | 255 | 0.0 | 3.2 | 0.00 | 0.00 | 0.00 | 57 | 1018.5 |
| 20260905160301 | 33 | 152 | 0.0 | 1.6 | 0.00 | 0.00 | 0.00 | 59 | 1018.5 |
| 20260905155756 | 33 | 260 | 1.6 | 3.2 | 0.00 | 0.00 | 0.00 | 59 | 1018.6 |
| 20260905155255 | 33 | 254 | 1.6 | 6.4 | 0.00 | 0.00 | 0.00 | 61 | 1018.5 |
| 20260905154749 | 33 | 246 | 3.2 | 4.8 | 0.00 | 0.00 | 0.00 | 60 | 1018.7 |
| 20260905154245 | 33 | 266 | 3.2 | 4.8 | 0.00 | 0.00 | 0.00 | 61 | 1018.5 |
| 20260905153740 | 33 | 221 | 1.6 | 4.8 | 0.00 | 0.00 | 0.00 | 61 | 1018.6 |
| 20260905153236 | 32 | 265 | 3.2 | 3.2 | 0.00 | 0.00 | 0.00 | 62 | 1018.5 |
| 20260905152730 | 32 | 243 | 1.6 | 4.8 | 0.00 | 0.00 | 0.00 | 62 | 1018.5 |
| 20260905152225 | 32 | 297 | 4.8 | 6.4 | 0.00 | 0.00 | 0.00 | 62 | 1018.6 |
| 20260905151724 | 32 | 286 | 0.0 | 3.2 | 0.00 | 0.00 | 0.00 | 64 | 1018.7 |
| 20260905151221 | 32 | 163 | 1.6 | 3.2 | 0.00 | 0.00 | 0.00 | 64 | 1018.5 |
| 20260905150715 | 32 | 267 | 1.6 | 4.8 | 0.00 | 0.00 | 0.00 | 64 | 1018.6 |
| 20260905150214 | 31 | 328 | 3.2 | 4.8 | 0.00 | 0.00 | 0.00 | 65 | 1018.4 |
| 20260905145712 | 31 | 283 | 1.6 | 4.8 | 0.00 | 0.00 | 0.00 | 65 | 1018.6 |
| 20260905145207 | 31 | 273 | 3.2 | 3.2 | 0.00 | 0.00 | 0.00 | 65 | 1018.4 |
| 20260905144706 | 31 | 304 | 3.2 | 3.2 | 0.00 | 0.00 | 0.00 | 65 | 1018.3 |
| 20260905144206 | 31 | 281 | 1.6 | 3.2 | 0.00 | 0.00 | 0.00 | 66 | 1018.6 |
| 20260905143705 | 31 | 262 | 4.8 | 4.8 | 0.00 | 0.00 | 0.00 | 66 | 1018.4 |
| 20260905143200 | 31 | 274 | 3.2 | 4.8 | 0.00 | 0.00 | 0.00 | 68 | 1018.4 |
| 20260905142658 | 31 | 340 | 1.6 | 3.2 | 0.00 | 0.00 | 0.00 | 69 | 1018.4 |
| 20260905142153 | 30 | 264 | 3.2 | 3.2 | 0.00 | 0.00 | 0.00 | 70 | 1018.5 |
| 20260905141648 | 30 | 252 | 1.6 | 3.2 | 0.00 | 0.00 | 0.00 | 70 | 1018.5 |
| 20260905141144 | 30 | 234 | 3.2 | 3.2 | 0.00 | 0.00 | 0.00 | 71 | 1018.6 |
| 20260905140639 | 30 | 295 | 0.0 | 3.2 | 0.00 | 0.00 | 0.00 | 71 | 1018.6 |
| 20260905140138 | 30 | 280 | 1.6 | 3.2 | 0.00 | 0.00 | 0.00 | 72 | 1018.6 |
| 20260905135634 | 30 | 285 | 1.6 | 3.2 | 0.00 | 0.00 | 0.00 | 71 | 1018.6 |
| 20260905135129 | 30 | 295 | 0.0 | 3.2 | 0.00 | 0.00 | 0.00 | 73 | 1018.5 |
| 20260905134624 | 29 | 305 | 1.6 | 3.2 | 0.00 | 0.00 | 0.00 | 74 | 1018.4 |
| 20260905134122 | 28 | 264 | 0.0 | 1.6 | 0.00 | 0.00 | 0.00 | 74 | 1018.5 |
| 20260905133618 | 28 | 11 | 0.0 | 1.6 | 0.00 | 0.00 | 0.00 | 77 | 1018.6 |
| 20260905133113 | 28 | 283 | 0.0 | 1.6 | 0.00 | 0.00 | 0.00 | 78 | 1018.6 |
| 20260905132613 | 28 | 68 | 0.0 | 0.0 | 0.00 | 0.00 | 0.00 | 82 | 1018.4 |
| 20260905132107 | 28 | 75 | 0.0 | 0.0 | 0.00 | 0.00 | 0.00 | 82 | 1018.5 |
| 20260905131603 | 27 | 65 | 0.0 | 0.0 | 0.00 | 0.00 | 0.00 | 80 | 1018.3 |
| 20260905131058 | 27 | 81 | 0.0 | 0.0 | 0.00 | 0.00 | 0.00 | 81 | 1018.3 |
| 20260905130557 | 27 | 133 | 0.0 | 0.0 | 0.00 | 0.00 | 0.00 | 82 | 1018.4 |
| 20260905130052 | 27 | 160 | 0.0 | 0.0 | 0.00 | 0.00 | 0.00 | 82 | 1018.2 |
| 20260905125551 | 27 | 134 | 0.0 | 0.0 | 0.00 | 0.00 | 0.00 | 82 | 1018.2 |
| 20260905125047 | 26 | 89 | 0.0 | 0.0 | 0.00 | 0.00 | 0.00 | 82 | 1018.2 |
| 20260905124544 | 26 | 143 | 0.0 | 0.0 | 0.00 | 0.00 | 0.00 | 83 | 1018.1 |
| 20260905124039 | 26 | 127 | 0.0 | 0.0 | 0.00 | 0.00 | 0.00 | 83 | 1017.9 |
| 20260905123535 | 26 | 129 | 0.0 | 0.0 | 0.00 | 0.00 | 0.00 | 84 | 1018.1 |
| 20260905123031 | 26 | 128 | 0.0 | 0.0 | 0.00 | 0.00 | 0.00 | 85 | 1018.1 |
| 20260905122531 | 25 | 128 | 0.0 | 0.0 | 0.00 | 0.00 | 0.00 | 86 | 1018.1 |
| 20260905122026 | 25 | 87 | 0.0 | 0.0 | 0.00 | 0.00 | 0.00 | 86 | 1018.0 |
| 20260905121526 | 25 | 128 | 0.0 | 0.0 | 0.00 | 0.00 | 0.00 | 87 | 1018.1 |
| 20260905121021 | 25 | 142 | 0.0 | 0.0 | 0.00 | 0.00 | 0.00 | 88 | 1017.9 |
| 20260905120515 | 24 | 139 | 0.0 | 0.0 | 0.00 | 0.00 | 0.00 | 89 | 1018.0 |
| 20260905120010 | 24 | 143 | 0.0 | 0.0 | 0.00 | 0.00 | 0.00 | 91 | 1017.9 |
| 20260905115508 | 23 | 130 | 0.0 | 0.0 | 0.00 | 0.00 | 0.00 | 92 | 1017.9 |
| 20260905115004 | 23 | 130 | 0.0 | 0.0 | 0.00 | 0.00 | 0.00 | 93 | 1017.8 |
| 20260905114458 | 23 | 130 | 0.0 | 0.0 | 0.00 | 0.00 | 0.00 | 92 | 1017.7 |
| 20260905113956 | 23 | 131 | 0.0 | 0.0 | 0.00 | 0.00 | 0.00 | 92 | 1017.7 |
| 20260905113452 | 23 | 122 | 0.0 | 0.0 | 0.00 | 0.00 | 0.00 | 93 | 1017.6 |
| 20260905112948 | 23 | 120 | 0.0 | 0.0 | 0.00 | 0.00 | 0.00 | 93 | 1017.7 |
| 20260905112443 | 23 | 120 | 0.0 | 0.0 | 0.00 | 0.00 | 0.00 | 93 | 1017.6 |
| 20260905111938 | 23 | 120 | 0.0 | 0.0 | 0.00 | 0.00 | 0.00 | 92 | 1017.7 |
| 20260905111437 | 24 | 120 | 0.0 | 0.0 | 0.00 | 0.00 | 0.00 | 92 | 1017.7 |
| 20260905110932 | 24 | 121 | 0.0 | 0.0 | 0.00 | 0.00 | 0.00 | 91 | 1017.6 |
| 20260905110426 | 23 | 121 | 0.0 | 0.0 | 0.00 | 0.00 | 0.00 | 91 | 1017.6 |
| 20260905105926 | 23 | 119 | 0.0 | 0.0 | 0.00 | 0.00 | 0.00 | 92 | 1017.7 |
| 20260905105426 | 23 | 118 | 0.0 | 0.0 | 0.00 | 0.00 | 0.00 | 92 | 1017.6 |
| 20260905104920 | 23 | 118 | 0.0 | 0.0 | 0.00 | 0.00 | 0.00 | 92 | 1017.5 |
| 20260905104416 | 23 | 118 | 0.0 | 0.0 | 0.00 | 0.00 | 0.00 | 92 | 1017.6 |
| 20260905103915 | 23 | 118 | 0.0 | 0.0 | 0.00 | 0.00 | 0.00 | 92 | 1017.4 |
| 20260905103411 | 23 | 118 | 0.0 | 0.0 | 0.00 | 0.00 | 0.00 | 92 | 1017.5 |
| 20260905102907 | 23 | 118 | 0.0 | 0.0 | 0.00 | 0.00 | 0.00 | 92 | 1017.6 |
| 20260905102403 | 23 | 118 | 0.0 | 0.0 | 0.00 | 0.00 | 0.00 | 93 | 1017.4 |
| 20260905101858 | 24 | 118 | 0.0 | 0.0 | 0.00 | 0.00 | 0.00 | 93 | 1017.7 |
| 20260905101357 | 24 | 118 | 0.0 | 0.0 | 0.00 | 0.00 | 0.00 | 92 | 1017.6 |
| 20260905100856 | 24 | 118 | 0.0 | 0.0 | 0.00 | 0.00 | 0.00 | 91 | 1017.7 |
| 20260905100353 | 24 | 119 | 0.0 | 0.0 | 0.00 | 0.00 | 0.00 | 91 | 1017.7 |
| 20260905095851 | 24 | 119 | 0.0 | 0.0 | 0.00 | 0.00 | 0.00 | 91 | 1017.6 |
| 20260905095346 | 24 | 119 | 0.0 | 0.0 | 0.00 | 0.00 | 0.00 | 91 | 1017.5 |
| 20260905094841 | 24 | 145 | 0.0 | 0.0 | 0.00 | 0.00 | 0.00 | 91 | 1017.6 |
| 20260905094337 | 24 | 127 | 0.0 | 0.0 | 0.00 | 0.00 | 0.00 | 91 | 1017.4 |
| 20260905093836 | 24 | 122 | 0.0 | 0.0 | 0.00 | 0.00 | 0.00 | 92 | 1017.5 |
| 20260905093331 | 24 | 122 | 0.0 | 0.0 | 0.00 | 0.00 | 0.00 | 92 | 1017.5 |
| 20260905092827 | 24 | 122 | 0.0 | 0.0 | 0.00 | 0.00 | 0.00 | 92 | 1017.6 |
| 20260905092327 | 24 | 122 | 0.0 | 0.0 | 0.00 | 0.00 | 0.00 | 91 | 1017.4 |
| 20260905091822 | 24 | 122 | 0.0 | 0.0 | 0.00 | 0.00 | 0.00 | 91 | 1017.3 |
| 20260905091322 | 24 | 122 | 0.0 | 0.0 | 0.00 | 0.00 | 0.00 | 91 | 1017.4 |
| 20260905090820 | 23 | 122 | 0.0 | 0.0 | 0.00 | 0.00 | 0.00 | 91 | 1017.3 |
| 20260905090317 | 24 | 122 | 0.0 | 0.0 | 0.00 | 0.00 | 0.00 | 92 | 1017.4 |
| 20260905085816 | 24 | 122 | 0.0 | 0.0 | 0.00 | 0.00 | 0.00 | 92 | 1017.3 |
| 20260905085316 | 24 | 122 | 0.0 | 0.0 | 0.00 | 0.00 | 0.00 | 91 | 1017.5 |
| 20260905084811 | 24 | 122 | 0.0 | 0.0 | 0.00 | 0.00 | 0.00 | 91 | 1017.5 |
| 20260905084306 | 24 | 122 | 0.0 | 0.0 | 0.00 | 0.00 | 0.00 | 91 | 1017.6 |
| 20260905083801 | 24 | 122 | 0.0 | 0.0 | 0.00 | 0.00 | 0.00 | 90 | 1017.6 |
| 20260905083257 | 24 | 122 | 0.0 | 0.0 | 0.00 | 0.00 | 0.00 | 90 | 1017.7 |
| 20260905082752 | 24 | 122 | 0.0 | 0.0 | 0.00 | 0.00 | 0.00 | 90 | 1017.4 |
| 20260905082248 | 24 | 113 | 0.0 | 0.0 | 0.00 | 0.00 | 0.00 | 89 | 1017.5 |
| 20260905081747 | 25 | 108 | 0.0 | 0.0 | 0.00 | 0.00 | 0.00 | 90 | 1017.4 |
| 20260905081242 | 25 | 108 | 0.0 | 0.0 | 0.00 | 0.00 | 0.00 | 90 | 1017.4 |
| 20260905080736 | 25 | 108 | 0.0 | 0.0 | 0.00 | 0.00 | 0.00 | 89 | 1017.4 |
| 20260905080231 | 25 | 108 | 0.0 | 0.0 | 0.00 | 0.00 | 0.00 | 89 | 1017.5 |
| 20260905075730 | 25 | 108 | 0.0 | 0.0 | 0.00 | 0.00 | 0.00 | 89 | 1017.6 |
| 20260905075229 | 25 | 108 | 0.0 | 0.0 | 0.00 | 0.00 | 0.00 | 88 | 1017.6 |
| 20260905074728 | 25 | 108 | 0.0 | 0.0 | 0.00 | 0.00 | 0.00 | 88 | 1017.7 |
| 20260905074224 | 25 | 106 | 0.0 | 0.0 | 0.00 | 0.00 | 0.00 | 89 | 1017.5 |
| 20260905073719 | 25 | 106 | 0.0 | 0.0 | 0.00 | 0.00 | 0.00 | 88 | 1017.6 |
| 20260905073214 | 25 | 106 | 0.0 | 0.0 | 0.00 | 0.00 | 0.00 | 88 | 1017.6 |
| 20260905072708 | 25 | 106 | 0.0 | 0.0 | 0.00 | 0.00 | 0.00 | 87 | 1017.6 |
| 20260905072204 | 25 | 106 | 0.0 | 0.0 | 0.00 | 0.00 | 0.00 | 86 | 1017.6 |
| 20260905071700 | 25 | 136 | 0.0 | 0.0 | 0.00 | 0.00 | 0.00 | 86 | 1017.8 |
| 20260905071156 | 25 | 136 | 0.0 | 0.0 | 0.00 | 0.00 | 0.00 | 85 | 1017.7 |
| 20260905070650 | 25 | 136 | 0.0 | 0.0 | 0.00 | 0.00 | 0.00 | 86 | 1017.7 |
| 20260905070147 | 25 | 136 | 0.0 | 0.0 | 0.00 | 0.00 | 0.00 | 85 | 1017.8 |
| 20260905065645 | 25 | 136 | 0.0 | 0.0 | 0.00 | 0.00 | 0.00 | 85 | 1017.7 |
| 20260905065139 | 25 | 130 | 0.0 | 0.0 | 0.00 | 0.00 | 0.00 | 87 | 1017.7 |
| 20260905064634 | 25 | 124 | 0.0 | 0.0 | 0.00 | 0.00 | 0.00 | 87 | 1018.0 |
| 20260905064130 | 25 | 124 | 0.0 | 0.0 | 0.00 | 0.00 | 0.00 | 87 | 1017.9 |
| 20260905063628 | 25 | 124 | 0.0 | 0.0 | 0.00 | 0.00 | 0.00 | 87 | 1018.0 |
| 20260905063125 | 25 | 124 | 0.0 | 0.0 | 0.00 | 0.00 | 0.00 | 87 | 1017.8 |
| 20260905062620 | 25 | 124 | 0.0 | 0.0 | 0.00 | 0.00 | 0.00 | 88 | 1018.1 |
| 20260905062119 | 25 | 124 | 0.0 | 0.0 | 0.00 | 0.00 | 0.00 | 88 | 1018.0 |
| 20260905061614 | 25 | 124 | 0.0 | 0.0 | 0.00 | 0.00 | 0.00 | 88 | 1018.1 |
| 20260905061109 | 25 | 124 | 0.0 | 0.0 | 0.00 | 0.00 | 0.00 | 86 | 1018.2 |
| 20260905060605 | 25 | 124 | 0.0 | 0.0 | 0.00 | 0.00 | 0.00 | 86 | 1018.0 |
| 20260905060101 | 25 | 124 | 0.0 | 0.0 | 0.00 | 0.00 | 0.00 | 86 | 1018.0 |
| 20260905055559 | 25 | 124 | 0.0 | 0.0 | 0.00 | 0.00 | 0.00 | 86 | 1017.9 |
| 20260905055054 | 26 | 124 | 0.0 | 0.0 | 0.00 | 0.00 | 0.00 | 87 | 1018.1 |
| 20260905054550 | 26 | 124 | 0.0 | 0.0 | 0.00 | 0.00 | 0.00 | 88 | 1018.1 |
| 20260905054045 | 26 | 124 | 0.0 | 0.0 | 0.00 | 0.00 | 0.00 | 86 | 1018.1 |
| 20260905053544 | 26 | 124 | 0.0 | 0.0 | 0.00 | 0.00 | 0.00 | 84 | 1018.0 |
| 20260905053040 | 26 | 125 | 0.0 | 0.0 | 0.00 | 0.00 | 0.00 | 83 | 1018.1 |
| 20260905052539 | 26 | 125 | 0.0 | 0.0 | 0.00 | 0.00 | 0.00 | 84 | 1018.0 |
| 20260905052034 | 26 | 125 | 0.0 | 0.0 | 0.00 | 0.00 | 0.00 | 84 | 1018.0 |
| 20260905051530 | 26 | 125 | 0.0 | 0.0 | 0.00 | 0.00 | 0.00 | 84 | 1018.1 |
| 20260905051027 | 26 | 125 | 0.0 | 0.0 | 0.00 | 0.00 | 0.00 | 84 | 1017.9 |
| 20260905050522 | 26 | 137 | 0.0 | 0.0 | 0.00 | 0.00 | 0.00 | 84 | 1018.0 |
| 20260905050019 | 26 | 137 | 0.0 | 0.0 | 0.00 | 0.00 | 0.00 | 88 | 1018.1 |
| 20260905045513 | 26 | 335 | 0.0 | 0.0 | 0.00 | 0.00 | 0.00 | 86 | 1017.8 |
| 20260905045008 | 26 | 335 | 0.0 | 0.0 | 0.00 | 0.00 | 0.00 | 85 | 1017.8 |
| 20260905044503 | 26 | 335 | 0.0 | 0.0 | 0.00 | 0.00 | 0.00 | 85 | 1017.9 |
| 20260905044002 | 26 | 95 | 0.0 | 0.0 | 0.00 | 0.00 | 0.00 | 85 | 1017.9 |
| 20260905043501 | 26 | 105 | 0.0 | 0.0 | 0.00 | 0.00 | 0.00 | 85 | 1017.9 |
| 20260905042957 | 27 | 105 | 0.0 | 0.0 | 0.00 | 0.00 | 0.00 | 83 | 1017.8 |
| 20260905042450 | 27 | 105 | 0.0 | 0.0 | 0.00 | 0.00 | 0.00 | 82 | 1017.9 |
| 20260905041946 | 27 | 131 | 0.0 | 0.0 | 0.00 | 0.00 | 0.00 | 82 | 1017.8 |
| 20260905041442 | 27 | 98 | 0.0 | 0.0 | 0.00 | 0.00 | 0.00 | 81 | 1017.9 |
| 20260905040936 | 27 | 97 | 0.0 | 0.0 | 0.00 | 0.00 | 0.00 | 81 | 1017.7 |
| 20260905040435 | 27 | 122 | 0.0 | 0.0 | 0.00 | 0.00 | 0.00 | 81 | 1017.7 |
| 20260905035930 | 27 | 116 | 0.0 | 0.0 | 0.00 | 0.00 | 0.00 | 81 | 1017.9 |
| 20260905035425 | 27 | 126 | 0.0 | 0.0 | 0.00 | 0.00 | 0.00 | 83 | 1018.1 |
| 20260905034922 | 27 | 111 | 0.0 | 0.0 | 0.00 | 0.00 | 0.00 | 83 | 1018.2 |
| 20260905034417 | 27 | 110 | 0.0 | 0.0 | 0.00 | 0.00 | 0.00 | 84 | 1018.2 |
| 20260905033916 | 27 | 119 | 0.0 | 0.0 | 0.00 | 0.00 | 0.00 | 82 | 1017.9 |
| 20260905033411 | 27 | 119 | 0.0 | 0.0 | 0.00 | 0.00 | 0.00 | 81 | 1018.1 |
| 20260905032910 | 27 | 108 | 0.0 | 0.0 | 0.00 | 0.00 | 0.00 | 81 | 1018.0 |
| 20260905032400 | 27 | 187 | 0.0 | 0.0 | 0.00 | 0.00 | 0.00 | 78 | 1018.1 |
| 20260905031855 | 27 | 139 | 0.0 | 0.0 | 0.00 | 0.00 | 0.00 | 80 | 1018.1 |
| 20260905031351 | 27 | 139 | 0.0 | 0.0 | 0.00 | 0.00 | 0.00 | 79 | 1018.2 |
| 20260905030846 | 27 | 142 | 0.0 | 0.0 | 0.00 | 0.00 | 0.00 | 80 | 1018.3 |
| 20260905030342 | 27 | 127 | 0.0 | 0.0 | 0.00 | 0.00 | 0.00 | 80 | 1018.2 |